VK5TRM-14 Weather Reports


time (UTC)temp
C
wind
direction
speed
KPH
gust
KPH
rain 1hr
cm
rain 24hr
cm
rain mn
cm
humidity
%
barometer
mb
20260510120005 10 202 8.0 8.0 0.00 0.00 0.00 85 1029.4
20260510114504 10 202 8.0 8.0 0.00 0.00 0.00 85 1029.4
20260510113005 9 247 8.0 9.7 0.00 0.00 0.00 83 1029.3
20260510111505 9 247 8.0 9.7 0.00 0.00 0.00 83 1029.3
20260510110005 10 247 4.8 8.0 0.00 0.00 0.00 81 1029.3
20260510104505 10 247 4.8 8.0 0.00 0.00 0.00 81 1029.3
20260510103005 11 270 4.8 4.8 0.00 0.00 0.00 79 1029.2
20260510101505 11 270 4.8 4.8 0.00 0.00 0.00 79 1029.2
20260510100005 11 0 0.0 0.0 0.00 0.00 0.00 77 1029.0
20260510094505 11 0 0.0 0.0 0.00 0.00 0.00 77 1029.0
20260510093005 12 0 0.0 0.0 0.00 0.00 0.00 73 1028.7
20260510091505 12 0 0.0 0.0 0.00 0.00 0.00 73 1028.7
20260510090005 13 0 0.0 0.0 0.00 0.00 0.00 70 1028.4
20260510084506 13 0 0.0 0.0 0.00 0.00 0.00 70 1028.4
20260510083005 16 0 0.0 0.0 0.00 0.00 0.00 61 1028.2
20260510081506 16 0 0.0 0.0 0.00 0.00 0.00 61 1028.2
20260510080005 18 157 4.8 8.0 0.00 0.00 0.00 55 1027.9
20260510074505 18 157 4.8 8.0 0.00 0.00 0.00 55 1027.9
20260510073005 19 157 9.7 14.5 0.00 0.00 0.00 53 1027.8
20260510071505 19 157 9.7 14.5 0.00 0.00 0.00 53 1027.8
20260510070005 19 225 8.0 11.3 0.00 0.00 0.00 55 1027.8
20260510064505 19 225 8.0 11.3 0.00 0.00 0.00 55 1027.8
20260510063005 20 157 9.7 12.9 0.00 0.00 0.00 52 1027.7
20260510061505 20 157 9.7 12.9 0.00 0.00 0.00 52 1027.7
20260510060005 19 157 9.7 12.9 0.00 0.00 0.00 58 1027.8
20260510054505 19 157 9.7 12.9 0.00 0.00 0.00 58 1027.8
20260510053005 20 112 1.6 8.0 0.00 0.00 0.00 55 1027.9
20260510051505 20 112 1.6 8.0 0.00 0.00 0.00 55 1027.9
20260510050005 19 157 8.0 16.1 0.00 0.00 0.00 55 1027.9
20260510044504 19 157 8.0 16.1 0.00 0.00 0.00 55 1027.9
20260510043005 19 180 8.0 11.3 0.00 0.00 0.00 57 1028.1
20260510041505 19 180 8.0 11.3 0.00 0.00 0.00 57 1028.1
20260510040005 18 135 8.0 14.5 0.00 0.00 0.00 58 1028.2
20260510034505 18 135 8.0 14.5 0.00 0.00 0.00 58 1028.2
20260510033004 18 157 9.7 14.5 0.00 0.00 0.00 61 1028.6
20260510031505 18 157 9.7 14.5 0.00 0.00 0.00 61 1028.6
20260510030005 18 180 8.0 12.9 0.00 0.00 0.00 61 1028.9
20260510024505 18 180 8.0 12.9 0.00 0.00 0.00 61 1028.9
20260510023005 17 202 9.7 14.5 0.00 0.00 0.00 64 1029.3
20260510021505 17 202 9.7 14.5 0.00 0.00 0.00 64 1029.3
20260510020005 17 157 8.0 11.3 0.00 0.00 0.00 67 1029.6
20260510014505 17 157 8.0 11.3 0.00 0.00 0.00 67 1029.6
20260510013005 16 135 8.0 14.5 0.00 0.00 0.00 71 1029.8
20260510011505 16 135 8.0 14.5 0.00 0.00 0.00 71 1029.8
20260510010005 15 135 4.8 9.7 0.00 0.00 0.00 76 1029.8
20260510004505 15 135 4.8 9.7 0.00 0.00 0.00 76 1029.8
20260510003005 14 135 8.0 11.3 0.00 0.00 0.00 80 1029.9
20260510001505 14 135 8.0 11.3 0.00 0.00 0.00 80 1029.9
20260510000005 12 135 8.0 11.3 0.00 0.00 0.00 84 1030.2
20260509234505 12 135 8.0 11.3 0.00 0.00 0.00 84 1030.2
20260509233005 11 157 11.3 14.5 0.00 0.00 0.00 87 1030.0
20260509231504 11 157 11.3 14.5 0.00 0.00 0.00 87 1030.0
20260509230005 10 157 9.7 11.3 0.00 0.00 0.00 93 1029.8
20260509224504 10 157 9.7 11.3 0.00 0.00 0.00 93 1029.8
20260509223005 9 180 8.0 9.7 0.00 0.00 0.00 97 1029.5
20260509221505 9 180 8.0 9.7 0.00 0.00 0.00 97 1029.5
20260509220005 8 0 0.0 0.0 0.00 0.00 0.00 97 1029.1
20260509214505 8 0 0.0 0.0 0.00 0.00 0.00 97 1029.1
20260509213005 7 0 0.0 0.0 0.00 0.00 0.00 97 1028.9
20260509211504 7 0 0.0 0.0 0.00 0.00 0.00 97 1028.9
20260509210005 6 0 0.0 0.0 0.00 0.00 0.00 97 1028.7
20260509204505 6 0 0.0 0.0 0.00 0.00 0.00 97 1028.7
20260509203004 4 0 0.0 0.0 0.00 0.00 0.00 95 1028.4
20260509201505 4 0 0.0 0.0 0.00 0.00 0.00 95 1028.4
20260509200005 4 292 4.8 8.0 0.00 0.00 0.00 94 1028.1
20260509194505 4 292 4.8 8.0 0.00 0.00 0.00 94 1028.1
20260509193004 5 270 4.8 8.0 0.00 0.00 0.00 94 1027.9
20260509191505 5 270 4.8 8.0 0.00 0.00 0.00 94 1027.9
20260509190006 5 247 4.8 4.8 0.00 0.00 0.00 94 1027.6
20260509184506 5 247 4.8 4.8 0.00 0.00 0.00 94 1027.6
20260509183005 5 270 8.0 8.0 0.00 0.00 0.00 94 1027.7
20260509181504 5 270 8.0 8.0 0.00 0.00 0.00 94 1027.7
20260509180005 5 292 4.8 8.0 0.00 0.00 0.00 92 1027.7
20260509174505 5 292 4.8 8.0 0.00 0.00 0.00 92 1027.7
20260509173005 6 292 4.8 8.0 0.00 0.00 0.00 94 1027.9
20260509171505 6 292 4.8 8.0 0.00 0.00 0.00 94 1027.9
20260509170005 6 270 8.0 9.7 0.00 0.00 0.00 94 1028.0
20260509164505 6 270 8.0 9.7 0.00 0.00 0.00 94 1028.0
20260509163005 6 270 8.0 8.0 0.00 0.00 0.00 93 1028.1
20260509161505 6 270 8.0 8.0 0.00 0.00 0.00 93 1028.1
20260509160005 6 270 8.0 8.0 0.00 0.00 0.00 93 1028.1
20260509154505 6 270 8.0 8.0 0.00 0.00 0.00 93 1028.1
20260509153005 7 247 4.8 8.0 0.00 0.00 0.00 95 1028.2
20260509151505 7 247 4.8 8.0 0.00 0.00 0.00 95 1028.2
20260509150005 7 270 8.0 11.3 0.00 0.00 0.00 92 1028.3
20260509144505 7 270 8.0 11.3 0.00 0.00 0.00 92 1028.3
20260509143005 7 292 1.6 9.7 0.00 0.00 0.00 91 1028.4
20260509141505 7 292 1.6 9.7 0.00 0.00 0.00 91 1028.4
20260509140006 7 247 4.8 8.0 0.00 0.00 0.00 93 1028.4
20260509134505 7 247 4.8 8.0 0.00 0.00 0.00 93 1028.4
20260509133005 7 247 4.8 8.0 0.00 0.00 0.00 91 1028.5
20260509131504 7 247 4.8 8.0 0.00 0.00 0.00 91 1028.5
20260509130005 7 270 8.0 8.0 0.00 0.00 0.00 91 1028.7
20260509124505 7 270 8.0 8.0 0.00 0.00 0.00 91 1028.7
20260509123005 7 0 0.0 0.0 0.00 0.00 0.00 90 1028.6
20260509121505 7 0 0.0 0.0 0.00 0.00 0.00 90 1028.6